Location: Grandview
(34.8900°N, 117.1058°W)
Time: 17:29:19
(UTC-07:00)

CUTE 1.7 + AOD 2 - Visible Passes

Search period start: 16 October 2018 00:00
Search period end: 26 October 2018 00:00
Orbit: 594 x 613 km, 97.5° (Epoch: 16 October)

Date Brightness Start Highest point End Pass type
(mag) Time Alt. Az. Time Alt. Az. Time Alt. Az.
16 Oct ? 19:09:22 10° SSW 19:12:55 27° W 19:16:30 10° NW visible
17 Oct ? 19:22:09 10° SW 19:25:11 19° W 19:28:13 10° NW visible
18 Oct ? 19:35:18 10° SW 19:37:28 14° W 19:39:37 10° WNW visible
20 Oct ? 05:59:22 10° ENE 06:01:12 12° E 06:03:00 10° ESE visible
21 Oct ? 06:10:36 10° NE 06:13:29 17° E 06:16:21 10° SE visible
21 Oct ? 18:33:49 10° S 18:37:59 72° WSW 18:42:13 10° NNW visible
22 Oct ? 06:22:14 10° NE 06:25:45 24° E 06:29:14 10° SSE visible
22 Oct ? 18:46:08 10° S 18:50:12 50° W 18:54:19 10° NNW visible
23 Oct ? 06:34:05 10° NNE 06:37:59 34° E 06:41:52 10° SSE visible
23 Oct ? 18:58:35 10° SSW 19:02:25 35° W 19:06:18 10° NNW visible
24 Oct ? 19:11:12 10° SSW 19:14:40 25° W 19:18:09 10° NW visible
25 Oct ? 19:24:02 10° SW 19:26:55 18° W 19:29:50 10° NW visible
